Location: Anuling
(14.1239°N, 120.8922°E)
Time: 11:36:24
(UTC+00:00)

Cosmos 2218 Rocket - Pass Details

Date: 12 April 2026
Orbit: 955 x 1005 km, 82.9° (Epoch: 11 May)

Event Time Altitude Azimuth Distance (km) Brightness Sun altitude
Exits shadow 13:32:46 14° 319° (NW) 2,415 6.5 -47.5°
Drops below altitude 10° 13:33:49 10° 327° (NNW) 2,682 6.7 -47.7°
Sets 13:36:54 0° 342° (NNW) 3,625 7.4 -48.3°
